Simultaneous Nadir Overpasses (SNOs) Predictions

Prediction of SNOs between AQUA and METOP-B Satellite Orbit:

Table of predicted SNOs for the next 14.0 days since TLE Epoch: 10/7/2023
Index Date (AQUA) Time (AQUA) Lat,Lon (AQUA) SZA (AQUA ) Date (METOP-B) Time (METOP-B) Lat,Lon (METOP-B) SZA (METOP-B ) Distance(km) Time Diff (sec)
1 10/08/2023 10:18:55 74.88, 21.52 80.66 10/08/2023 10:18:22 74.88, 21.57 80.66 1.88 33
2 10/08/2023 11:08:19 -74.94,-170.99 99.27 10/08/2023 11:09:03 -74.91,-171.00 99.30 3.74 44
3 10/11/2023 03:21:20 -74.88, -54.04 98.32 10/11/2023 03:20:40 -74.90, -53.95 98.30 3.25 40
4 10/11/2023 04:10:46 74.93, 113.47 81.75 10/11/2023 04:11:19 74.93, 113.48 81.76 0.33 33
5 10/13/2023 20:23:45 74.88,-129.61 82.70 10/13/2023 20:22:57 74.85,-129.65 82.68 3.24 48
6 10/13/2023 21:13:09 -74.93, 37.90 97.23 10/13/2023 21:13:37 -74.94, 37.92 97.22 0.89 28
7 10/16/2023 13:26:05 -74.89, 154.81 96.29 10/16/2023 13:25:13 -74.90, 154.89 96.28 2.41 52
8 10/16/2023 14:15:31 74.95, -37.71 83.80 10/16/2023 14:15:52 74.93, -37.70 83.77 3.09 21
9 10/19/2023 06:28:25 74.87, 79.31 84.69 10/19/2023 06:27:29 74.87, 79.23 84.69 2.37 56
10 10/19/2023 07:17:50 -74.97,-113.31 95.20 10/19/2023 07:18:09 -74.96,-113.19 95.21 3.76 19



Historial Predications of SNOs between AQUA and METOP-B
